Weather History for Blytheville Muni Airport, AR

Change the Weather History Date:

Monday, March 31, 2014

  Actual Average Record
Temperature  
Mean Temperature 58 °F -  
Max Temperature 73 °F 64 °F 86 °F (1963)
Min Temperature 43 °F 44 °F 26 °F (1944)
Degree Days  
Heating Degree Days 7    
Growing Degree Days 8 (Base 50)    
Moisture  
Dew Point 41 °F    
Average Humidity 54    
Maximum Humidity 76    
Minimum Humidity 29    
Precipitation  
Precipitation 0.00 in - - ()
Sea Level Pressure  
Sea Level Pressure 30.04 in    
Wind  
Wind Speed 9 mph (South)    
Max Wind Speed 16 mph    
Max Gust Speed 22 mph    
Visibility 10 miles    
Events Rain    
Averages and records for this station are not official NWS values.
T = Trace of Precipitation, MM = Missing Value Source: NWS Daily Summary

Daily Weather History Graph

Daily Weather History Graph

Search for Another Location

Airport:

Trip Planner

Search our weather history database for the weather conditions in past years. The results will help you decide how hot, cold, wet, or windy it might be!

Date:

Astronomy

Mar. 31, 2014 Rise Set
Actual Time 6:47 AM CDT 7:20 PM CDT
Civil Twilight 6:21 AM CDT 7:46 PM CDT
Nautical Twilight 5:51 AM CDT 8:16 PM CDT
Astronomical Twilight 5:20 AM CDT 8:47 PM CDT
Moon 7:12 AM CDT (3/31) 8:36 PM CDT (3/31)
Length of Visible Light 13h 24m
Length of Day
12h 33m
New Moon, 1% of the Moon is Illuminated
Mar 31
New Moon
Apr 7
First Quarter
Apr 15
Full
Apr 22
Last Quarter
Apr 29
New

Hourly Weather History & Observations

Time (CDT) Temp. Windchill Dew Point Humidity Pressure Visibility Wind Dir Wind Speed Gust Speed Precip Events Conditions
12:53 AM 48.9 °F - 37.9 °F 66% 30.13 in 10.0 mi South 6.9 mph - N/A   Clear
1:53 AM 46.9 °F - 39.0 °F 74% 30.11 in 10.0 mi SSE 8.1 mph - N/A   Clear
2:53 AM 46.9 °F - 37.9 °F 71% 30.10 in 10.0 mi SSE 5.8 mph - N/A   Clear
3:53 AM 46.9 °F - 37.0 °F 68% 30.09 in 10.0 mi SSE 6.9 mph - N/A   Clear
4:53 AM 46.0 °F 42.5 °F 36.0 °F 68% 30.08 in 10.0 mi SE 6.9 mph - N/A   Clear
5:53 AM 45.0 °F 41.8 °F 36.0 °F 71% 30.08 in 10.0 mi SSE 5.8 mph - N/A   Clear
6:53 AM 43.0 °F 38.8 °F 36.0 °F 76% 30.10 in 10.0 mi SSE 6.9 mph - N/A   Clear
7:53 AM 48.9 °F - 39.0 °F 69% 30.11 in 10.0 mi SSE 9.2 mph - N/A   Clear
8:53 AM 52.0 °F - 41.0 °F 66% 30.10 in 10.0 mi SSE 11.5 mph - N/A   Clear
9:53 AM 59.0 °F - 43.0 °F 55% 30.10 in 10.0 mi SSE 12.7 mph - N/A   Clear
10:53 AM 62.1 °F - 42.1 °F 48% 30.10 in 10.0 mi South 13.8 mph - N/A   Clear
11:53 AM 66.9 °F - 43.0 °F 42% 30.09 in 10.0 mi SSW 11.5 mph - N/A   Clear
12:53 PM 68.0 °F - 42.1 °F 39% 30.07 in 10.0 mi South 15.0 mph - N/A   Clear
1:53 PM 70.0 °F - 42.1 °F 36% 30.03 in 10.0 mi SSW 12.7 mph 21.9 mph N/A   Partly Cloudy
2:53 PM 72.0 °F - 39.9 °F 31% 29.99 in 10.0 mi South 15.0 mph - N/A   Scattered Clouds
3:53 PM 73.0 °F - 39.0 °F 29% 29.96 in 10.0 mi South 12.7 mph 20.7 mph N/A   Clear
4:53 PM 73.0 °F - 39.0 °F 29% 29.95 in 10.0 mi South 13.8 mph - N/A   Mostly Cloudy
5:53 PM 68.0 °F - 46.9 °F 47% 29.97 in 10.0 mi West 8.1 mph - N/A   Mostly Cloudy
6:53 PM 64.9 °F - 44.1 °F 47% 29.97 in 10.0 mi SW 8.1 mph - N/A   Mostly Cloudy
7:53 PM 64.0 °F - 45.0 °F 50% 29.89 in 10.0 mi SSE 16.1 mph - 0.00 in Rain Light Rain
8:53 PM 63.0 °F - 44.1 °F 50% 29.96 in 10.0 mi SW 10.4 mph - 0.00 in   Overcast
9:53 PM 64.0 °F - 44.1 °F 48% 29.97 in 10.0 mi WSW 8.1 mph - N/A   Overcast
10:53 PM 63.0 °F - 46.0 °F 54% 29.98 in 10.0 mi West 9.2 mph - N/A   Overcast
11:53 PM 63.0 °F - 46.0 °F 54% 29.99 in 10.0 mi WSW 8.1 mph - N/A   Overcast